Flag for Canada Weather past 2 weeks in Whistler, British Columbia, Canada

Now
50 °F

Cool.


Feels Like: 49 °F
Forecast: 40 / 54 °F
Wind: 3 mph from Southeast

Location: Squamish Airport

Current Time: Apr 28, 2015 at 1:26:26 PM

Latest Report: Apr 28, 2015 at 1:00 PM


Visibility: N/A

Pressure: 30.10 "Hg

Humidity: 92%

Dew point: 47 °F

Location of WhistlerLocation

Historic Weather in Whistler — Graph

°F

Whistler temperature yesterday

Maximum temperature yesterday: 58 °F (at 5:00 PM)
Minimum temperature yesterday: 46 °F (at 6:00 AM)
Average temperature yesterday: 51 °F

Past Weeks' High & Low Weather Summary

 TemperatureHumidityPressure
High70 °F (Apr 20, 4:00 PM)100% (Apr 14, 1:00 AM)30.51 "Hg (Apr 14, 1:00 AM)
Low35 °F (Apr 15, 3:00 AM)31% (Apr 19, 5:00 PM)29.68 "Hg (Apr 23, 7:00 PM)
Average49 °F76%30.07 "Hg
* Reported Apr 13 12:00 Noon — Apr 28 12:00 Noon, Whistler, Weather by CustomWeather, © 2015

Note: Actual official high and low records may vary slightly from our data, if they occured in-between our weather recording intervals... More about our weather records

Advertising

Whistler weather history for previous 24 hours

 ConditionsComfort  
Time TempWeatherWind HumidityBarometerVisibility
12:00 PM
Tue, Apr 28
50 °FCool.6 mph90%30.08 "HgN/A
11:00 AM52 °FCool.10 mph77%30.01 "HgN/A
10:00 AM57 °FCool.12 mph77%29.95 "HgN/A
9:00 AM59 °FCool.6 mph67%29.93 "HgN/A
8:00 AM60 °FCool.9 mph71%29.91 "HgN/A
7:00 AM56 °FCool.3 mph89%29.89 "HgN/A
6:00 AM51 °FCool.1 mph95%29.89 "HgN/A
5:00 AM51 °FCool.1 mph96%29.89 "HgN/A
4:00 AM51 °FCool.1 mph94%29.90 "HgN/A
3:00 AM51 °FCool.2 mph92%29.90 "HgN/A
2:00 AM51 °FCool.2 mph91%29.91 "HgN/A
1:00 AM51 °FCool.2 mph91%29.93 "HgN/A
12:00 AM51 °FCool.2 mph91%29.93 "HgN/A
11:00 PM
Mon, Apr 27
52 °FCool.2 mph91%29.96 "HgN/A
10:00 PM52 °FCool.2 mph91%29.99 "HgN/A
9:00 PM54 °FCool.3 mph88%30.01 "HgN/A
8:00 PM56 °FCool.2 mph87%30.03 "HgN/A
7:00 PM57 °FCool.5 mph82%30.06 "HgN/A
6:00 PM58 °FCool.6 mph81%30.09 "HgN/A
5:00 PM58 °FCool.5 mph82%30.11 "HgN/A
4:00 PM57 °FCool.3 mph86%30.15 "HgN/A
3:00 PM55 °FCool.2 mph87%30.19 "HgN/A
2:00 PM53 °FCool.1 mph87%30.22 "HgN/A
1:00 PM53 °FCool.2 mph91%30.24 "HgN/A
Weather by CustomWeather, © 2015

See weather overviewHow to use our weather pages